Regional Weather Roundup
Issued by NWS

Home | Current Version | Previous Version | Text Only | Print | Product List | Glossary On
Versions: 1 2 3 4 5 6 7 8 9 10 11 12 13 14 15 16 17 18 19 20 21 22 23 24 25 26 27 28 29 30 31 32 33 34 35 36 37 38 39 40 41 42 43 44 45 46 47 48 49 50
000
ASUS44 KJAN 232310
RWRMS

MISSISSIPPI HOURLY WEATHER ROUNDUP
NATIONAL WEATHER SERVICE JACKSON MS
600 PM CDT WED APR 23 2014

NOTE: "FAIR: INDICATES FEW OR NO CLOUDS BELOW 12,000 FEET WITH NO
SIGNIFICANT WEATHER AND/OR OBSTRUCTIONS TO VISIBILITY.

MSZ001>002-007>008-010>013-018>021-025>028-034>036-240000-
NORTHWEST MISSISSIPPI

CITY           SKY/WX    TMP DP  RH WIND       PRES   REMARKS
CLARKSDALE       N/A     77  41  27 CALM      29.92F
CLEVELAND      FAIR      78  45  31 NE5       29.91F
GREENWOOD      SUNNY     78  43  28 N6        29.91F
GREENVILLE     SUNNY     78  40  25 E3        29.91F
GRENADA        FAIR      75  43  31 SE6       29.93S
OLIVE BRANCH   MOSUNNY   75  37  25 NE5       29.94S
OXFORD         LGT RAIN  75  34  22 NE3       29.95S
TUNICA         CLEAR     77  37  24 E3        29.93F
$$

MSZ003>006-009-014>017-022>024-029>033-037>039-240000-
NORTHEAST MISSISSIPPI

CITY           SKY/WX    TMP DP  RH WIND       PRES   REMARKS
BELMONT        FAIR      73  39  28 NE6       29.94S
COLUMBUS AFB   SUNNY     78  40  25 CALM      29.92S
CORINTH        FAIR      75  32  20 N6        29.94S
GOLDN TRIANGLE SUNNY     79  43  27 NE7       29.95S
STARKVILLE     FAIR      75  39  27 N5        29.93S
TUPELO         SUNNY     77  35  21 CALM      29.92F
$$

MSZ040-058-240000-
CENTRAL MISSISSIPPI

CITY           SKY/WX    TMP DP  RH WIND       PRES   REMARKS
JACKSON INTL   SUNNY     81  48  31 N7        29.90F
JACKSON HAWKNS SUNNY     81  43  26 N5        29.90F
MERIDIAN KEY   SUNNY     79  48  33 NW6       29.90F
MERIDIAN NAS   SUNNY     79  44  28 CALM      29.91F
RAYMOND        FAIR      81  75  83 CALM      29.90F
VICKSBURG      SUNNY     81  40  23 N5        29.89F
$$

MSZ059>079-240000-
SOUTH MISSISSIPPI

CITY           SKY/WX    TMP DP  RH WIND       PRES   REMARKS
BROOKHAVEN     FAIR      81  45  28 CALM      29.91F
HATTIESBURG    MOSUNNY   83  53  35 N3        29.89S
MCCOMB         SUNNY     82  44  26 CALM      29.89F
NATCHEZ        SUNNY     79  46  31 NE5       29.90S
PINE BELT      CLOUDY    82  54  36 CALM      29.91S
$$

MSZ080>082-240000-
COASTAL MISSISSIPPI

CITY           SKY/WX    TMP DP  RH WIND       PRES   REMARKS
BAY ST LOUIS   MOSUNNY   81  57  44 S9        29.89
BILOXI         SUNNY     75  66  74 SW10      29.90S
PASCAGOULA     SUNNY     75  63  66 S7        29.90R
GULFPORT       SUNNY     79  62  56 SW7       29.89S
$$



USA.gov is the U.S. government's official web portal to all federal, state and local government web resources and services.